Saranac Lake, NY

10:41 AM EDT on May 27, 2018 (GMT -0400)
Adirondack Regional

Weather History for KSLK - March, 2013

Change the Weather History Date:

Thursday, March 21, 2013

  Actual Average Record
Temperature  
Mean Temperature 16 °F 26 °F  
Max Temperature 26 °F 38 °F 77 °F (2012)
Min Temperature 5 °F 15 °F -16 °F (2007)
Degree Days  
Heating Degree Days 49 38  
Month to date heating degree days 890 897  
Since 1 July heating degree days 7147 7602  
Cooling Degree Days 0 0  
Month to date cooling degree days 0 0  
Year to date cooling degree days 0 0  
Moisture  
Dew Point 13 °F    
Average Humidity 74    
Maximum Humidity 92    
Minimum Humidity 55    
Precipitation  
Precipitation T in 0.08 in 0.78 in (1990)
Month to date precipitation 0.80 1.41  
Year to date precipitation 2.69 5.15  
Sea Level Pressure  
Sea Level Pressure 29.63 in    
Wind  
Wind Speed 7 mph (WSW)    
Max Wind Speed 20 mph    
Max Gust Speed 24 mph    
Visibility 8 miles    
Events Snow    
T = Trace of Precipitation, MM = Missing Value Source: NWS Daily Summary

Daily Weather History Graph

Daily Weather History Graph

Search for Another Location

Airport or City:

Astronomy

Mar. 21, 2013 Rise Set
Actual Time 6:57 AM EDT 7:10 PM EDT
Civil Twilight 6:28 AM EDT 7:39 PM EDT
Nautical Twilight 5:54 AM EDT 8:13 PM EDT
Astronomical Twilight 5:19 AM EDT 8:48 PM EDT
Moon 1:27 PM EDT (3/21) 3:29 AM EDT (3/21)
Length of Visible Light 13h 11m
Length of Day
12h 13m
Waxing Gibbous, 68% of the Moon is Illuminated
Mar 21
Waxing Gibbous
Mar 27
Full
Apr 3
Last Quarter
Apr 10
New
Apr 18
First Quarter

Hourly Weather History & Observations

Time (EDT) Temp. Windchill Dew Point Humidity Pressure Visibility Wind Dir Wind Speed Gust Speed Precip Events Conditions
12:12 AM 19.4 °F 9.5 °F 15.8 °F 86% 29.63 in 10.0 mi SW 8.1 mph - N/A   Overcast
12:43 AM 19.4 °F 9.5 °F 15.8 °F 86% 29.63 in 10.0 mi SW 8.1 mph - N/A   Overcast
12:51 AM 19.9 °F 10.1 °F 16.0 °F 85% 29.70 in 9.0 mi SW 8.1 mph - N/A   Overcast
1:20 AM 19.4 °F 10.4 °F 15.8 °F 86% 29.63 in 10.0 mi WSW 6.9 mph - 0.00 in   Mostly Cloudy
1:51 AM 19.0 °F 9.0 °F 15.1 °F 85% 29.70 in 10.0 mi SW 8.1 mph - 0.00 in   Mostly Cloudy
2:04 AM 19.4 °F 9.5 °F 15.8 °F 86% 29.63 in 10.0 mi SW 8.1 mph - N/A   Mostly Cloudy
2:24 AM 17.6 °F 9.3 °F 15.8 °F 93% 29.62 in 10.0 mi SW 5.8 mph - N/A   Scattered Clouds
2:51 AM 17.1 °F 10.0 °F 14.0 °F 88% 29.69 in 10.0 mi WSW 4.6 mph - N/A   Scattered Clouds
3:01 AM 15.8 °F 10.2 °F 14.0 °F 93% 29.62 in 10.0 mi West 3.5 mph - N/A   Mostly Cloudy
3:43 AM 15.8 °F 8.6 °F 12.2 °F 86% 29.62 in 10.0 mi WSW 4.6 mph - N/A   Scattered Clouds
3:51 AM 16.0 °F 7.4 °F 12.9 °F 88% 29.69 in 10.0 mi WSW 5.8 mph - N/A   Scattered Clouds
4:04 AM 15.8 °F 10.2 °F 12.2 °F 86% 29.61 in 10.0 mi WSW 3.5 mph - N/A   Mostly Cloudy
4:30 AM 15.8 °F 10.2 °F 12.2 °F 86% 29.61 in 10.0 mi WSW 3.5 mph - N/A   Mostly Cloudy
4:41 AM 14.0 °F 6.5 °F 12.2 °F 93% 29.61 in 10.0 mi WSW 4.6 mph - N/A   Partly Cloudy
5:38 AM 14.0 °F 5.1 °F 10.4 °F 86% 29.61 in 10.0 mi WSW 5.8 mph - N/A   Mostly Cloudy
5:51 AM 12.9 °F 5.2 °F 10.9 °F 92% 29.68 in 10.0 mi West 4.6 mph - N/A   Mostly Cloudy
5:58 AM 12.2 °F 4.3 °F 10.4 °F 92% 29.60 in 10.0 mi West 4.6 mph - N/A   Scattered Clouds
6:51 AM 10.9 °F 4.7 °F 9.0 °F 92% 29.69 in 10.0 mi West 3.5 mph - N/A   Clear
7:25 AM 6.8 °F - 3.2 °F 85% 29.61 in 10.0 mi Calm Calm - N/A   Mostly Cloudy
7:51 AM 10.0 °F 1.8 °F 8.1 °F 92% 29.70 in 10.0 mi SW 4.6 mph - N/A   Scattered Clouds
8:51 AM 17.1 °F 8.7 °F 12.9 °F 84% 29.68 in 10.0 mi SW 5.8 mph - N/A   Partly Cloudy
9:29 AM 19.4 °F 6.6 °F 12.2 °F 74% 29.61 in 1.5 mi SW 12.7 mph 20.7 mph N/A   Haze
9:44 AM 19.4 °F 5.5 °F 12.2 °F 74% 29.61 in 10.0 mi SSW 15.0 mph 19.6 mph N/A   Clear
9:51 AM 21.0 °F 9.9 °F 12.9 °F 71% 29.68 in 10.0 mi WSW 10.4 mph 19.6 mph N/A   Partly Cloudy
10:11 AM 21.2 °F 10.1 °F 12.2 °F 68% 29.60 in 10.0 mi WSW 10.4 mph - N/A   Mostly Cloudy
10:34 AM 21.2 °F 6.8 °F 10.4 °F 63% 29.60 in 10.0 mi SW 17.3 mph 20.7 mph N/A   Mostly Cloudy
10:51 AM 23.0 °F 9.6 °F 10.9 °F 60% 29.67 in 10.0 mi SW 16.1 mph 23.0 mph N/A   Scattered Clouds
11:51 AM 24.1 °F 11.5 °F 10.9 °F 57% 29.66 in 10.0 mi SW 15.0 mph 21.9 mph N/A   Scattered Clouds
12:51 PM 25.0 °F 15.5 °F 10.0 °F 53% 29.65 in 10.0 mi SW 9.2 mph 16.1 mph N/A   Overcast
1:51 PM 25.0 °F 14.2 °F 10.9 °F 55% 29.64 in 10.0 mi WSW 11.5 mph 18.4 mph N/A   Overcast
3:51 PM 26.1 °F 19.4 °F 12.9 °F 58% 29.63 in 9.0 mi SW 5.8 mph - 0.00 in   Overcast
4:09 PM 24.8 °F 14.6 °F 17.6 °F 74% 29.56 in 1.8 mi WSW 10.4 mph 18.4 mph 0.00 in Snow Light Snow
4:23 PM 24.8 °F 16.9 °F 17.6 °F 74% 29.56 in 1.2 mi WSW 6.9 mph - 0.00 in Snow Light Snow
4:30 PM 24.8 °F 17.9 °F 17.6 °F 74% 29.56 in 3.0 mi WSW 5.8 mph - 0.00 in Snow Light Snow
4:46 PM 24.8 °F 19.1 °F 17.6 °F 74% 29.56 in 2.5 mi West 4.6 mph - 0.00 in Snow Light Snow
4:51 PM 24.1 °F 14.4 °F 17.1 °F 75% 29.64 in 3.0 mi West 9.2 mph - 0.00 in Snow Light Snow
5:01 PM 24.8 °F 15.3 °F 17.6 °F 74% 29.56 in 2.0 mi WSW 9.2 mph - 0.00 in Snow Light Snow
5:10 PM 24.8 °F 16.1 °F 17.6 °F 74% 29.56 in 4.0 mi West 8.1 mph - 0.00 in Snow Light Snow
5:21 PM 24.8 °F 14.6 °F 15.8 °F 69% 29.57 in 9.0 mi WSW 10.4 mph 17.3 mph 0.00 in   Overcast
5:51 PM 24.1 °F 14.4 °F 15.1 °F 69% 29.65 in 10.0 mi WSW 9.2 mph 18.4 mph 0.00 in   Overcast
6:15 PM 24.8 °F 14.0 °F 15.8 °F 69% 29.57 in 10.0 mi WSW 11.5 mph 19.6 mph N/A   Overcast
6:22 PM 23.0 °F 15.8 °F 14.0 °F 68% 29.57 in 10.0 mi WSW 5.8 mph 19.6 mph N/A   Overcast
6:51 PM 21.9 °F 14.5 °F 12.9 °F 68% 29.66 in 10.0 mi WSW 5.8 mph - N/A   Clear
7:51 PM 18.0 °F 12.7 °F 12.0 °F 78% 29.68 in 10.0 mi SW 3.5 mph - N/A   Mostly Cloudy
8:51 PM 21.0 °F 12.4 °F 12.9 °F 71% 29.68 in 10.0 mi WSW 6.9 mph - N/A   Overcast
9:51 PM 19.0 °F 12.3 °F 12.9 °F 77% 29.68 in 10.0 mi SSW 4.6 mph - 0.00 in   Overcast
11:11 PM 17.6 °F 10.7 °F 15.8 °F 93% 29.59 in 2.0 mi South 4.6 mph - 0.00 in Snow Light Snow
11:25 PM 17.6 °F 10.7 °F 14.0 °F 86% 29.59 in 5.0 mi South 4.6 mph - 0.00 in Snow Light Snow
11:33 PM 15.8 °F 10.2 °F 12.2 °F 86% 29.58 in 8.0 mi South 3.5 mph - 0.00 in   Overcast
11:51 PM 15.1 °F - 12.9 °F 91% 29.65 in 9.0 mi Calm Calm - 0.00 in   Overcast